This demonstration page uses our WeatherBlox Daily Observations layout. Learn more.

Left ArrowRight Arrow

40.97296, -117.73568

Hourly Observations for May 30, 2022

Temp ( °F °C ) Dew Point ( °F °C ) Humidity (%) Winds ( mph kmh ) Pressure ( in mb ) Visibility ( mi km ) Precip ( " mm )
12:56 am 00:56 Cloudy 45 7.2 31 -0.6 58 58 NW 6 9 29.89 1012 10 16 0.00 0.00
1:56 am 01:56 Mostly Cloudy 42 5.6 31 -0.6 65 65 NNW 6 9 29.90 1013 10 16 0.00 0.00
2:56 am 02:56 Mostly Cloudy 43 6.1 29 -1.7 58 58 NNW 9 15 29.90 1012 10 16 0.00 0.00
3:56 am 03:56 Cloudy 41 5 29 -1.7 62 62 N 6 9 29.90 1013 10 16 0.00 0.00
4:56 am 04:56 Partly Cloudy 36 2.2 28 -2.2 73 73 WNW 7 11 29.92 1013 10 16 0.00 0.00
5:56 am 05:56 Sunny 37 2.8 27 -2.8 67 67 NW 8 13 29.92 1013 10 16 0.00 0.00
6:56 am 06:56 Sunny 41 5 27 -2.8 57 57 NW 8 13 29.93 1014 10 16 0.00 0.00
7:56 am 07:56 Sunny 43 6.1 27 -2.8 53 53 VRB 3 6 29.94 1014 10 16 0.00 0.00
8:56 am 08:56 Sunny 47 8.3 28 -2.2 48 48 VRB 7 11 29.96 1014 10 16 0.00 0.00
9:56 am 09:56 Mostly Sunny 50 10 27 -2.8 41 41 WNW 8 13 29.94 1014 10 16 0.00 0.00
10:56 am 10:56 Mostly Cloudy 53 11.7 26 -3.3 35 35 W 10 17 29.93 1014 10 16 0.00 0.00
11:56 am 11:56 Sunny 55 12.8 25 -3.9 31 31 VRB 7 11 29.92 1013 10 16 0.00 0.00
12:56 pm 12:56 Sunny 56 13.3 22 -5.6 27 27 undefined N/A 29.91 1013 10 16 0.00 0.00
1:56 pm 13:56 Mostly Sunny 60 15.6 23 -5 24 24 W 9 15 29.89 1012 10 16 0.00 0.00
2:56 pm 14:56 Partly Cloudy 60 15.6 23 -5 24 24 undefined N/A 29.87 1012 10 16 0.00 0.00
3:56 pm 15:56 Partly Cloudy 61 16.1 22 -5.6 22 22 W 8 13 29.87 1011 10 16 0.00 0.00
4:56 pm 16:56 Mostly Sunny 59 15 20 -6.7 22 22 Calm 29.88 1012 10 16 0.00 0.00
5:56 pm 17:56 Partly Cloudy 61 16.1 22 -5.6 22 22 NW 12 19 29.88 1012 10 16 0.00 0.00
6:56 pm 18:56 Sunny 60 15.6 17 -8.3 19 19 NNW 13 20 29.88 1012 10 16 0.00 0.00
7:56 pm 19:56 Mostly Sunny 54 12.2 22 -5.6 29 29 N 14 22 29.90 1012 10 16 0.00 0.00
8:56 pm 20:56 Clear 51 10.6 27 -2.8 39 39 N 13 20 29.92 1013 10 16 0.00 0.00
9:56 pm 21:56 Clear 50 10 33 0.6 52 52 NNE 16 26 29.95 1014 10 16 0.00 0.00
10:56 pm 22:56 Clear 47 8.3 34 1.1 61 61 NE 13 20 29.97 1015 10 16 0.00 0.00
11:56 pm 23:56 Clear 46 7.8 32 0 58 58 NE 9 15 29.97 1015 10 16 0.00 0.00

Powered by AerisWeather